Regional Weather Roundup
Issued by NWS

Home | Current Version | Previous Version | Graphics & Text | Print | Product List | Glossary On
Versions: 1 2 3 4 5 6 7 8 9 10 11 12 13 14 15 16 17 18 19 20 21 22 23 24 25 26 27 28 29 30 31 32 33 34 35 36 37 38 39 40 41 42 43 44 45 46 47 48 49 50
000
ASUS43 KIND 240009
RWRIN

WEATHER ROUNDUP FOR INDIANA
NATIONAL WEATHER SERVICE INDIANAPOLIS IN
800 PM EDT WED JUL 23 2014

NOTE: "FAIR" INDICATES FEW OR NO CLOUDS BELOW 12,000 FEET WITH NO
SIGNIFICANT WEATHER AND/OR OBSTRUCTIONS TO VISIBILITY.

* - STATION DOES NOT REPORT WEATHER SUCH AS PRECIPITATION OR FOG.

+ - STATION NOT QUALITY CONTROLLED BY THE NATIONAL WEATHER SERVICE.
    USE DATA WITH CAUTION...ESPECIALLY DEWPOINT AND RELATIVE
    HUMIDITY OBSERVATIONS.

INZ001>003-010>013-019-020-240100-
NORTHWEST INDIANA

CITY           SKY/WX    TMP DP  RH WIND       PRES   REMARKS
GARY /AIRPORT/ SUNNY     66  54  63 N16G32    30.14S
KNOX *+        SUNNY     66  51  59 N14       30.10R
LA PORTE +     SUNNY     65  51  61 N16G22    30.12R
6HR MIN TEMP:  65; 6HR MAX TEMP:  69;

MICHIGAN CITY+ SUNNY     63  50  63 N15G21    30.12S
MONTICELLO +   SUNNY     67  57  70 N12G20    30.07S
RENSSELAER +   SUNNY     66  50  55 N16G23    30.11S
VALPARAISO     SUNNY     66  51  58 N14G21    30.11S
6HR MIN TEMP:  65; 6HR MAX TEMP:  69;


$$

LMZ046-743>745-240100-
SOUTHERN LAKE MICHIGAN

STATION/POSITION TIME  TEMP WIND        PRES
                       AIR  DIR/SP/G
                 (UTC) (F)  (DEG/KT/KT) (MB)
BURNS HARBOR     2300   66   20/ 23     1020.0
MICHIGAN CITY    0000   64  350/ 29/ 34   N/A

$$

INZ004-005-014>016-021>024-240100-
NORTH CENTRAL INDIANA

CITY           SKY/WX    TMP DP  RH WIND       PRES   REMARKS
ELKHART        SUNNY     68  55  64 NW7       30.08S
GOSHEN         MOSUNNY   72  59  63 N13       30.06R
6HR MIN TEMP:  71; 6HR MAX TEMP:  77;

LOGANSPORT +   SUNNY     68  57  68 N14       30.07R
PERU/GRISSOM   SUNNY     72  63  74 N14G20    30.05R
6HR MIN TEMP:  72; 6HR MAX TEMP:  77; 6HR PCP:  0.01;

ROCHESTER +    SUNNY     72  59  64 N14G20    30.07S
SOUTH BEND     SUNNY     68  55  63 N14       30.09S
6HR MIN TEMP:  68; 6HR MAX TEMP:  75;

WARSAW +       PTSUNNY   70  61  73 N10       30.06R

$$

INZ006>009-017-018-025>027-240100-
NORTHEAST INDIANA

CITY           SKY/WX    TMP DP  RH WIND       PRES   REMARKS
ANGOLA *+      MOSUNNY   73  64  73 N5        30.06R
AUBURN +       PTSUNNY   73  54  49 N10       30.06R
FORT WAYNE     MOSUNNY   72  59  63 N7        30.04R
6HR MIN TEMP:  68; 6HR MAX TEMP:  77; 6HR PCP: TRACE;

HUNTINGTON +   PTSUNNY   72  59  64 N5        30.04R
6HR MIN TEMP:  67; 6HR MAX TEMP:  75;


$$

INZ028-029-035-036-043>045-051>053-240100-
WEST CENTRAL INDIANA

CITY           SKY/WX    TMP DP  RH WIND       PRES   REMARKS
GREENCASTLE +  SUNNY     72  59  64 N15       30.05R
LAFAYETTE      SUNNY     69  54  58 N13G23    30.08R
6HR MIN TEMP:  69; 6HR MAX TEMP:  78;

TERRE HAUTE    SUNNY     73  58  59 N13       30.04S
6HR MIN TEMP:  70; 6HR MAX TEMP:  78; 6HR PCP:  0.01;


$$

INZ030>032-037>040-046>048-054>057-064-065-240100-
CENTRAL INDIANA

CITY           SKY/WX    TMP DP  RH WIND       PRES   REMARKS
CP ATTERBURY + CLOUDY    72  66  83 NE7       30.01S
COLUMBUS       CLOUDY    70  68  94 N12       30.01R
INDIANAPOLIS   PTSUNNY   74  61  63 N13       30.01S
6HR MIN TEMP:  72; 6HR MAX TEMP:  76; 6HR PCP: TRACE;

-EAGLE CREEK   CLOUDY    73  61  65 N8        30.02R
6HR MIN TEMP:  70; 6HR MAX TEMP:  76; 6HR PCP:  0.02;

KOKOMO *+      PTSUNNY   73  61  64 N13       30.04R
MARION +       PTSUNNY   72  59  64 N9        30.04S
MT COMFORT *+  CLOUDY    72  72 100 N10       30.03R
SHELBYVILLE    CLOUDY    73  66  78 N9        30.01S
6HR MIN TEMP:  73; 6HR MAX TEMP:  80; 6HR PCP: TRACE;

ZIONSVILLE +   PTSUNNY   73  60  65 N10       30.05R
6HR MIN TEMP:  70; 6HR MAX TEMP:  77;


$$

INZ033-034-041-042-049-050-058-059-240100-
EAST CENTRAL INDIANA

CITY           SKY/WX    TMP DP  RH WIND       PRES   REMARKS
MUNCIE         MOSUNNY   73  61  65 N6        30.03S
6HR MIN TEMP:  70; 6HR MAX TEMP:  76;


$$

INZ060-061-067>069-081>083-085>088-240100-
SOUTHWEST INDIANA

CITY           SKY/WX    TMP DP  RH WIND       PRES   REMARKS
EVANSVILLE     LGT RAIN  74  70  87 N12G20    29.99R FOG
6HR MIN TEMP:  74; 6HR MAX TEMP:  83; 6HR PCP: TRACE;

HUNTINGBURG *+ MOSUNNY   77  70  78 N13       29.99R
6HR MIN TEMP:  77; 6HR MAX TEMP:  82;

WASHINGTON +   CLOUDY    72  69  91 N7        30.00S
6HR MIN TEMP:  72; 6HR MAX TEMP:  78;


$$

INZ062-063-066-070>080-084-089>092-240100-
SOUTH CENTRAL AND SOUTHEAST INDIANA

CITY           SKY/WX    TMP DP  RH WIND       PRES   REMARKS
BLOOMINGTON    CLOUDY    73  67  81 N7        30.01F
6HR MIN TEMP:  73; 6HR MAX TEMP:  78;


$$




USA.gov is the U.S. government's official web portal to all federal, state and local government web resources and services.